Regional Weather Roundup
Issued by NWS

Home | Current Version | Previous Version | Text Only | Print | Product List | Glossary On
Versions: 1 2 3 4 5 6 7 8 9 10 11 12 13 14 15 16 17 18 19 20 21 22 23 24 25 26 27 28 29 30 31 32 33 34 35 36 37 38 39 40 41 42 43 44 45 46 47 48 49 50
000
ASUS45 KBOU 022107
RWRCO

WEATHER ROUNDUP FOR COLORADO
NATIONAL WEATHER SERVICE DENVER/BOULDER CO
200 PM MST FRI DEC 02 2016

NOTE: "FAIR" INDICATES FEW OR NO CLOUDS BELOW 12000 FEET WITH NO
SIGNIFICANT WEATHER AND/OR OBSTRUCTIONS TO VISIBILITY.

COZ001>005-013-030-031-022200-
...NORTHWEST COLORADO...

CITY           SKY/WX    TMP DP  RH WIND       PRES   REMARKS
CRAIG          CLOUDY    26  17  68 W8        30.12S WCI  18
HAYDEN         PTSUNNY   21  14  73 W10       30.09S WCI  10
MEEKER         CLOUDY    26  19  74 W7        30.09S WCI  18
MOUNT WERNER   NOT AVBL
STEAMBOAT SPGS CLOUDY    24  15  69 SW5       30.06S WCI  18
WALDEN           N/A     23  12  63 NW3       30.03F
$$

COZ006>008-011-022200-
...WEST CENTRAL VALLEYS...

CITY           SKY/WX    TMP DP  RH WIND       PRES   REMARKS
GRAND JUNCTION CLOUDY    38  22  52 NW5       30.06F
MONTROSE       CLOUDY    33  19  56 N5        30.07F WCI  29
EAGLE          CLOUDY    34  16  47 CALM      30.05F
RIFLE          CLOUDY    35  19  52 NW7       30.06F WCI  29
DELTA          NOT AVBL
NUCLA          CLOUDY    36  18  48 CALM      30.05S
$$

COZ017>023-064>068-022200-
...SOUTHWEST COLORADO...

CITY           SKY/WX    TMP DP  RH WIND       PRES   REMARKS
DURANGO        CLOUDY    39  18  42 E9        29.97F
CORTEZ         CLOUDY    37  23  56 SW10      29.97S
PAGOSA SPRINGS PTSUNNY   33  22  62 CALM      30.00S
TELLURIDE      FLURRIES  25  18  75 W7        29.99R WCI  17
WOLF CREEK PAS SNOW      14  14 100 SW10G17   30.01R VSB 1/2 WCI   1
$$

COZ009-010-012-014-032>034-037-058>063-022200-
...CENTRAL COLORADO...

CITY           SKY/WX    TMP DP  RH WIND       PRES   REMARKS
ASPEN          CLOUDY    27  17  66 CALM      29.99F
BUENA VISTA    LGT SNOW  22  17  84 SE8       30.07S WCI  12
COPPER MTN       N/A     18   5  57 MISG      29.94S
BERTHOUD PASS  CLOUDY     3  -9  55 SE23G32   29.94S WCI -19
COTTONWOOD PAS LGT SNOW  21  16  79 E3        30.02S
GUNNISON       FAIR      25  16  68 CALM      30.00F
KREMMLING      CLOUDY    32  19  59 CALM      30.04S
LEADVILLE      CLOUDY    15   9  76 S17       29.96S WCI  -1
MONARCH PASS   CLOUDY     9   3  78 NE5       30.07R WCI   0
SALIDA         CLOUDY    23  19  85 CALM      30.15S
SUNLIGHT       SNOW     N/A N/A N/A CALM      30.00S VSB 1/2
WILKERSON PASS LGT SNOW  12   9  85 CALM      30.01S VSB 1
$$

COZ069>075-022200-
...SAN LUIS VALLEY/SANGRE DE CRISTO MOUNTAINS...

CITY           SKY/WX    TMP DP  RH WIND       PRES   REMARKS
ALAMOSA        LGT SNOW  24  20  84 CALM      30.03F FOG
LA VETA PASS   SNOW      16  12  86 SW7       30.01S VSB 1/2 WCI   6
SAGUACHE       PTSUNNY   30  21  69 SE3       30.03F
$$

COZ035-036-038>040-022200-
...NORTHERN COLORADO FRONT RANGE...

CITY           SKY/WX    TMP DP  RH WIND       PRES   REMARKS
DENVER INTL AP CLOUDY    31  25  78 NE9       30.15F WCI  23
DMNS CITY PARK   N/A     33  15  47 N3G17     30.14F
AURORA         PTSUNNY   32  19  59 SE8       30.15F WCI  25
FRONT RANGE AP CLOUDY    34  25  69 E12G18    30.16F WCI  25
ERIE MUNI ARPT LGT SNOW  31  28  86 SE3       30.17F
BOULDER MUN AP CLOUDY    32  23  69 S3        30.16F
CENTENNIAL     LGT SNOW  29  21  72 CALM      30.14F FOG
BROOMFIELD     LGT SNOW  28  27  93 E5        30.16F VSB 1   WCI  23
FORT COLLINS   PTSUNNY   34  19  55 S9        30.17F WCI  26
LONGMONT       CLOUDY    35  23  62 SW3       30.18F
$$

COZ041-046-047-076>085-087-088-022200-
...PIKES PEAK/PALMER DIVIDE AND SOUTHERN FOOTHILLS...

CITY           SKY/WX    TMP DP  RH WIND       PRES   REMARKS
COLO. SPRINGS  LGT SNOW  29  20  69 SE7       30.13F WCI  22
A. F. ACADEMY  FLURRIES  27  21  80 S6        30.10F WCI  20
SCHRIEVER AFB  NOT AVBL
ELLICOTT       PTSUNNY  N/A N/A N/A S15G21    30.12F
FALCON         LGT SNOW  26  21  80 SE7       30.12F WCI  18
FORT CARSON    PTSUNNY   30  19  61 E3        30.12F
LIMON          CLOUDY    34  17  50 S8        30.16F WCI  27
MONUMENT HILL  PTSUNNY   27  18  69 S13       30.11F WCI  16
TRINIDAD       CLOUDY    34  19  54 SE6       30.12F WCI  29
$$

COZ042>045-048>051-090-091-022200-
...NORTHEAST COLORADO...

CITY           SKY/WX    TMP DP  RH WIND       PRES   REMARKS
GREELEY ARPT   CLOUDY    36  21  54 S7        30.19F
AKRON          CLOUDY    37  18  46 SE7       30.19F
BURLINGTON     CLOUDY    41  14  33 VRB3      30.20F
WRAY           CLOUDY    43  23  45 E6        30.23
STERLING       CLOUDY    37  23  56 CALM      30.20F
HOLYOKE        FAIR      41  23  48 CALM      30.23R
FORT MORGAN    CLOUDY    36  20  53 SE6       30.20F
$$

COZ086-089-092>099-022200-
...SOUTHEAST COLORADO...

CITY           SKY/WX    TMP DP  RH WIND       PRES   REMARKS
PUEBLO         CLOUDY    34  13  41 CALM      30.16F
LA JUNTA       CLOUDY    36  13  38 CALM      30.18F
LAMAR          LGT RAIN  41  14  33 N3        30.17F
SPRINGFIELD      N/A     42  12  29 E12       30.14F
$$



USA.gov is the U.S. government's official web portal to all federal, state and local government web resources and services.